This is the latest recevied weather packets stored in our database for station/object OE6JUE. If no packets are shown the sender has not sent any weather packets the latest 10 day(s).
| Time | Temp. | Humidity | Pressure | Rain* | Wind** | Luminosity | Snow |
|---|---|---|---|---|---|---|---|
| 1778060455 | 23.33° C | 37% | 1011.5 hPa | 0 mm | - | - | - |
| 1778060156 | 23.33° C | 37% | 1011.5 hPa | 0 mm | - | - | - |
| 1778059855 | 23.33° C | 36% | 1011.4 hPa | 0 mm | - | - | - |
| 1778059555 | 23.33° C | 35% | 1011.2 hPa | 0 mm | - | - | - |
| 1778059256 | 23.33° C | 35% | 1011.1 hPa | 0 mm | - | - | - |
| 1778058955 | 23.33° C | 35% | 1011.1 hPa | 0 mm | - | - | - |
| 1778058656 | 23.89° C | 33% | 1011.1 hPa | 0 mm | - | - | - |
| 1778058355 | 23.33° C | 34% | 1011.2 hPa | 0 mm | - | - | - |
| 1778058056 | 23.33° C | 35% | 1011.4 hPa | - | - | - | - |
| 1778057755 | 23.33° C | 35% | 1011.4 hPa | 0 mm | - | - | - |
| 1778057456 | 23.89° C | 35% | 1011.2 hPa | 0 mm | - | - | - |
| 1778057156 | 23.33° C | 36% | 1011.3 hPa | 0 mm | - | - | - |
| 1778056856 | 23.33° C | 35% | 1011.3 hPa | 0 mm | - | - | - |
| 1778056555 | 23.33° C | 35% | 1011.3 hPa | 0 mm | - | - | - |
| 1778056255 | 22.78° C | 36% | 1011.3 hPa | 0 mm | - | - | - |
| 1778055955 | 23.33° C | 40% | 1011.3 hPa | 0 mm | - | - | - |
| 1778055655 | 23.33° C | 40% | 1011.4 hPa | 0 mm | - | - | - |
| 1778055356 | 23.33° C | 40% | 1011.4 hPa | 0 mm | - | - | - |
| 1778055056 | 23.33° C | 40% | 1011.4 hPa | 0 mm | - | - | - |
| 1778054755 | 22.78° C | 41% | 1011.4 hPa | 0 mm | - | - | - |
| 1778054456 | 22.22° C | 44% | 1011.3 hPa | - | - | - | - |
| 1778054155 | 22.22° C | 44% | 1011.3 hPa | 0 mm | - | - | - |
| 1778053855 | 22.22° C | 47% | 1011.3 hPa | 0 mm | - | - | - |
| 1778053556 | 22.22° C | 46% | 1011.4 hPa | 0 mm | - | - | - |
| 1778053255 | 22.22° C | 46% | 1011.5 hPa | 0 mm | - | - | - |
* Rain latest hour (hover to see other rain measurements)
** Current wind speed in m/s (hover to see current wind gust speed)